Flag for Tajikistan Weather past 2 weeks in Dushanbe, Tajikistan

Now
N/A

Clear.


Feels Like: N/A
Forecast: 62 / 82 °F
Wind: 6 mph from West

Location: Dushanbe Airport

Current Time: Sep 1, 2015 at 7:31:49 PM

Latest Report: Sep 1, 2015 at 7:00 PM


Visibility: N/A

Pressure: N/A

Humidity: N/A

Dew point: N/A

Location of DushanbeLocation

Historic Weather in Dushanbe — Graph

°F

Dushanbe temperature yesterday

Maximum temperature yesterday: 88 °F (at 3:00 PM)
Minimum temperature yesterday: 61 °F (at 5:00 AM)
Average temperature yesterday: 74 °F

Past Weeks' High & Low Weather Summary

 TemperatureHumidityPressure
High102 °F (Aug 19, 3:00 PM)78% (Aug 27, 8:30 AM)30.07 "Hg (Aug 27, 8:30 AM)
Low57 °F (Aug 24, 5:00 AM)12% (Aug 20, 3:00 PM)29.68 "Hg (Aug 21, 3:30 PM)
Average78 °F39%29.90 "Hg
* Reported Aug 17 6:00 PM — Sep 1 6:30 PM, Dushanbe, Weather by CustomWeather, © 2015

Note: Actual official high and low records may vary slightly from our data, if they occured in-between our weather recording intervals... More about our weather records

Advertising

Dushanbe weather history for previous 24 hours

 ConditionsComfort  
Time TempWeatherWind HumidityBarometerVisibility
6:30 PM
Tue, Sep 1
82 °FClear.6 mph26%29.86 "HgN/A
6:00 PM84 °FClear.6 mph20%29.86 "HgN/A
5:30 PM88 °FClear.6 mph17%29.86 "HgN/A
5:00 PMN/AClear.3 mphN/AN/AN/A
4:30 PM88 °FClear.3 mph16%29.89 "HgN/A
4:00 PM88 °FClear.10 mph17%29.89 "HgN/A
3:30 PM88 °FClear.6 mph16%29.89 "HgN/A
3:00 PM88 °FPassing clouds.6 mph17%29.89 "HgN/A
2:30 PM88 °FPassing clouds.3 mph17%29.92 "HgN/A
2:00 PM88 °FPassing clouds.6 mph18%29.92 "HgN/A
1:30 PM88 °FPassing clouds.3 mph17%29.95 "HgN/A
1:00 PM86 °FPassing clouds.1 mph17%29.95 "HgN/A
12:30 PM86 °FPassing clouds.3 mph18%29.95 "HgN/A
12:00 PM84 °FPassing clouds.3 mph19%29.98 "HgN/A
11:30 AM84 °FPassing clouds.3 mph22%29.98 "HgN/A
11:00 AM84 °FPassing clouds.3 mph22%30.01 "HgN/A
10:30 AM81 °FPassing clouds.1 mph26%30.01 "HgN/A
10:00 AM79 °FClear.3 mph30%30.01 "HgN/A
9:30 AM79 °FClear.1 mph30%30.01 "HgN/A
8:30 AM72 °FClear.1 mph41%30.01 "HgN/A
8:00 AM70 °FClear.1 mph43%30.01 "HgN/A
7:30 AM66 °FPassing clouds.1 mph52%30.01 "HgN/A
7:00 AM66 °FPartly sunny.1 mph52%30.01 "HgN/A
6:30 AM64 °FPartly sunny.No wind52%30.01 "HgN/A
6:00 AM61 °FPartly sunny.1 mph59%30.01 "HgN/A
5:30 AM61 °FPassing clouds.1 mph59%30.01 "HgN/A
5:00 AM63 °FPassing clouds.No wind56%30.01 "HgN/A
4:30 AM63 °FPassing clouds.1 mph52%30.01 "HgN/A
4:00 AM63 °FPassing clouds.3 mph52%30.01 "HgN/A
3:30 AM64 °FPassing clouds.3 mph49%30.01 "HgN/A
2:30 AM61 °FPassing clouds.3 mph59%30.01 "HgN/A
2:00 AM66 °FPassing clouds.1 mph49%30.01 "HgN/A
1:30 AM63 °FPassing clouds.3 mph56%30.01 "Hg4 mi
1:00 AM66 °FClear.1 mph49%30.01 "HgN/A
12:30 AM66 °FClear.1 mph46%30.01 "HgN/A
12:00 AM68 °FClear.3 mph46%30.01 "HgN/A
11:30 PM
Mon, Aug 31
64 °FPassing clouds.6 mph52%30.01 "HgN/A
11:00 PM68 °FPassing clouds.1 mph46%30.01 "HgN/A
10:30 PM70 °FClear.1 mph43%30.01 "HgN/A
10:00 PM72 °FClear.1 mph41%30.01 "HgN/A
9:30 PM73 °FClear.No wind38%30.01 "HgN/A
9:00 PM73 °FClear.3 mph38%30.01 "HgN/A
8:30 PM75 °FClear.3 mph34%29.98 "HgN/A
8:00 PM75 °FClear.3 mph36%29.98 "HgN/A
7:30 PM77 °FClear.3 mph32%29.95 "HgN/A
7:00 PM79 °FClear.6 mph28%29.95 "HgN/A
Weather by CustomWeather, © 2015

See weather overviewHow to use our weather pages